Weather History for KNIP - October, 2011

Change the Weather History Date:

Wednesday, October 12, 2011

  Actual Average Record
Temperature  
Mean Temperature 78 °F -  
Max Temperature 84 °F 79 °F 90 °F (2014)
Min Temperature 71 °F 65 °F 55 °F (2007)
Cooling Degree Days 12    
Growing Degree Days 28 (Base 50)    
Moisture  
Dew Point 68 °F    
Average Humidity 77    
Maximum Humidity 91    
Minimum Humidity 55    
Precipitation  
Precipitation 0.00 in - - ()
Sea Level Pressure  
Sea Level Pressure 29.81 in    
Wind  
Wind Speed 7 mph (SSW)    
Max Wind Speed 13 mph    
Max Gust Speed -    
Visibility 10 miles    
Events Rain    
Averages and records for this station are not official NWS values.
T = Trace of Precipitation, MM = Missing Value Source: NWS Daily Summary

Daily Weather History Graph

Daily Weather History Graph

Search for Another Location

Airport or City:

Trip Planner

Search our weather history database for the weather conditions in past years. The results will help you decide how hot, cold, wet, or windy it might be!

Date:

Astronomy

Oct. 12, 2011 Rise Set
Actual Time 7:26 AM EDT 6:59 PM EDT
Civil Twilight 7:02 AM EDT 7:23 PM EDT
Nautical Twilight 6:34 AM EDT 7:51 PM EDT
Astronomical Twilight 6:06 AM EDT 8:18 PM EDT
Moon 7:09 PM EDT (10/12) 7:53 AM EDT (10/12)
Length of Visible Light 12h 20m
Length of Day
11h 32m
Full, 100% of the Moon is Illuminated
Oct 12
Full
Oct 19
Last Quarter
Oct 26
New
Nov 2
First Quarter
Nov 10
Full

Hourly Weather History & Observations

Time (EDT) Temp. Heat Index Dew Point Humidity Pressure Visibility Wind Dir Wind Speed Gust Speed Precip Events Conditions
12:53 AM 75.0 °F - 68.0 °F 79% 29.81 in 10.0 mi WSW 6.9 mph - N/A   Partly Cloudy
1:53 AM 73.9 °F - 68.0 °F 82% 29.82 in 10.0 mi SW 6.9 mph - N/A   Scattered Clouds
2:53 AM 73.9 °F - 68.0 °F 82% 29.81 in 10.0 mi SSW 6.9 mph - N/A   Partly Cloudy
3:53 AM 73.0 °F - 68.0 °F 84% 29.80 in 10.0 mi SW 6.9 mph - N/A   Partly Cloudy
4:53 AM 72.0 °F - 68.0 °F 87% 29.80 in 10.0 mi SSW 3.5 mph - N/A   Partly Cloudy
5:53 AM 71.1 °F - 68.0 °F 90% 29.81 in 10.0 mi South 5.8 mph - N/A   Partly Cloudy
6:29 AM 71.6 °F - 68.0 °F 88% 29.83 in 10.0 mi South 4.6 mph - N/A   Scattered Clouds
6:53 AM 71.1 °F - 68.0 °F 90% 29.83 in 10.0 mi South 5.8 mph - N/A   Scattered Clouds
7:53 AM 71.1 °F - 68.0 °F 90% 29.84 in 10.0 mi SSW 4.6 mph - N/A   Scattered Clouds
8:53 AM 72.0 °F - 69.1 °F 91% 29.86 in 10.0 mi South 8.1 mph - N/A   Scattered Clouds
9:53 AM 73.9 °F - 69.1 °F 85% 29.86 in 10.0 mi South 8.1 mph - N/A   Mostly Cloudy
10:53 AM 75.9 °F - 69.1 °F 79% 29.83 in 10.0 mi South 9.2 mph - N/A   Overcast
11:53 AM 80.1 °F 82.3 °F 66.9 °F 64% 29.83 in 10.0 mi WSW 10.4 mph - N/A   Mostly Cloudy
12:53 PM 82.0 °F 84.1 °F 66.0 °F 58% 29.81 in 10.0 mi West 11.5 mph - N/A   Mostly Cloudy
1:53 PM 84.0 °F 86.3 °F 66.0 °F 55% 29.80 in 10.0 mi SW 12.7 mph - N/A   Mostly Cloudy
2:43 PM 78.8 °F - 69.8 °F 74% 29.81 in 7.0 mi WSW 10.4 mph - 0.00 in Rain Light Rain
2:53 PM 78.1 °F - 68.0 °F 71% 29.79 in 10.0 mi West 6.9 mph - 0.00 in Rain Light Rain
3:53 PM 81.0 °F 83.8 °F 68.0 °F 65% 29.78 in 10.0 mi South 5.8 mph - N/A   Mostly Cloudy
4:31 PM 80.6 °F 83.9 °F 69.8 °F 70% 29.79 in 10.0 mi WSW 12.7 mph - 0.00 in Rain Light Rain
4:53 PM 79.0 °F - 70.0 °F 74% 29.77 in 10.0 mi SSW 4.6 mph - 0.00 in Rain Light Rain
5:53 PM 82.0 °F 84.9 °F 68.0 °F 62% 29.77 in 10.0 mi SW 9.2 mph - 0.00 in   Mostly Cloudy
6:53 PM 80.1 °F 82.7 °F 68.0 °F 67% 29.78 in 10.0 mi SSW 6.9 mph - N/A   Mostly Cloudy
7:53 PM 79.0 °F - 69.1 °F 72% 29.78 in 10.0 mi South 10.4 mph - N/A   Mostly Cloudy
8:53 PM 77.0 °F - 69.1 °F 76% 29.80 in 10.0 mi SSW 6.9 mph - N/A   Scattered Clouds
9:53 PM 75.9 °F - 69.1 °F 79% 29.81 in 10.0 mi SSW 6.9 mph - N/A   Scattered Clouds
10:53 PM 75.9 °F - 69.1 °F 79% 29.81 in 10.0 mi SW 6.9 mph - N/A   Mostly Cloudy
11:53 PM 75.0 °F - 68.0 °F 79% 29.82 in 10.0 mi WSW 8.1 mph - N/A   Mostly Cloudy